[[{"header":{"parameterUnit":"m.s-1","parameterCategory":2,"la1":30.2992,"la2":30.254,"lo1":-89.0895,"lo2":-89.0443,"dy":0.0025,"dx":0.0025,"nx":19,"ny":19,"refTime":"2026-04-22T21:00:00:Z","depth":"0","parameterNumber":2,"parameterNumberName":"U-component_of_CURRENTS"},"data":[0,0,0,0.309,0.3092,0.3198,0.3198,0.3321,0.3322,0,0,0,0,0,0,0,0,0,0,0,0.305,0.3051,0.309,0.3093,0.3198,0.3198,0.3321,0.3322,0,0,0,0,0,0,0,0,0,0,0,0.305,0.3051,0.3052,0.3093,0.3198,0.3198,0.3321,0.3242,0,0,0,0,0,0,0,0,0,0,0.314,0.3102,0.3051,0.3052,0.3094,0.3198,0.3198,0.3238,0.3247,0.3273,0,0.3297,0,0.3319,0.3331,0.3332,0,0,0,0.3084,0.3095,0.3133,0.3052,0.3095,0.3198,0.3148,0.3243,0.3253,0.3285,0.3299,0.3304,0.3321,0.3332,0.3333,0.3497,0.3497,0,0,0.3078,0.3059,0.3126,0.3139,0.3134,0.3145,0.3151,0.3249,0.3258,0.33,0.3307,0.3323,0.3333,0.3334,0.3496,0.3497,0,0,0,0.3067,0.3055,0.3091,0.3134,0.3158,0.3148,0.3155,0.3253,0.3269,0.3309,0.3325,0.3334,0.3335,0.3495,0.3496,0.3494,0,0,0,0.3063,0.305,0.3088,0.3077,0.3156,0.3208,0.3157,0.3261,0.3274,0.3324,0.3334,0.3337,0.3494,0.3496,0.3492,0.3429,0,0,0,0.3043,0.3048,0.3065,0.3076,0.3127,0.3207,0.3227,0.3264,0.3284,0.3332,0.3337,0.3493,0.3495,0.3491,0.3429,0.346,0,0,0,0.3012,0.3055,0.3065,0.3124,0.3126,0.3221,0.3226,0.3295,0.3339,0.3334,0.3494,0.3496,0.349,0.3429,0.3459,0.3451,0.3453,0,0,0.305,0.3059,0.3097,0.3109,0.3181,0.3205,0.3292,0.3346,0.3377,0.3457,0.3462,0.3493,0.3429,0.346,0.3562,0.3561,0,0,0,0.3099,0.3111,0.3144,0.3183,0.3254,0.3284,0.3357,0.3398,0.3472,0.3415,0.3533,0.3492,0.3512,0.3507,0.3507,0.3515,0.3505,0.3505,0.3505,0.3073,0.3117,0.3145,0.3199,0.3261,0.3353,0.3396,0.3462,0.3517,0.3558,0.3523,0.3579,0.3578,0.3577,0.3587,0.3594,0.3594,0.3594,0.3594,0.3038,0.3027,0.3086,0.3118,0.3186,0.3252,0.3404,0.346,0.3554,0.3573,0.3595,0.3544,0.3576,0.3587,0.3595,0.3595,0.3595,0.3595,0.3595,0.2931,0.2934,0.2951,0.2976,0.3028,0.3157,0.325,0.3385,0.35,0.3528,0.3561,0.3561,0.354,0.357,0.357,0.357,0.357,0.357,0.3569,0.2798,0.2826,0.28,0.2834,0.2857,0.2949,0.3161,0.3276,0.3443,0.3522,0.3523,0.3568,0.3571,0.3536,0.3568,0.3568,0.3568,0.3568,0.3569,0.2739,0.2716,0.2695,0.2693,0.2726,0.2759,0.2978,0.3221,0.3356,0.3426,0.3548,0.3545,0.3536,0.3537,0.3503,0.3523,0.3523,0.3523,0.3523,0.2701,0.2678,0.2669,0.2645,0.2627,0.2698,0.2795,0.3037,0.3345,0.346,0.3535,0.3552,0.3553,0.3545,0.3546,0.3513,0.3536,0.3536,0.3536,0.2728,0.2716,0.2718,0.2646,0.26,0.2621,0.2664,0.2834,0.3283,0.3538,0.3548,0.3548,0.3575,0.3576,0.3566,0.3567,0.3514,0,0]},{"header":{"parameterUnit":"m.s-1","parameterCategory":2,"la1":30.2992,"la2":30.254,"lo1":-89.0895,"lo2":-89.0443,"dy":0.0025,"dx":0.0025,"nx":19,"ny":19,"refTime":"2026-04-22T21:00:00:Z","depth":"0","parameterNumber":3,"parameterNumberName":"V-component_of_CURRENTS"},"data":[0,0,0,0.0341,0.0341,0.0286,0.0285,0.0147,0.0146,0,0,0,0,0,0,0,0,0,0,0,0.0354,0.0354,0.0341,0.0341,0.0286,0.0285,0.0148,0.0146,0,0,0,0,0,0,0,0,0,0,0,0.0354,0.0354,0.0354,0.0341,0.0286,0.0285,0.0148,0.0201,0,0,0,0,0,0,0,0,0,0,0.0261,0.029,0.0354,0.0354,0.0341,0.0286,0.0285,0.0204,0.0197,0.016,0,0.0163,0,0.0162,0.0137,0.0137,0,0,0,0.0319,0.0295,0.0286,0.0354,0.0341,0.0286,0.0304,0.0201,0.0193,0.0151,0.0161,0.0156,0.016,0.0137,0.0136,0.0067,0.0067,0,0,0.0322,0.0332,0.0291,0.0282,0.0339,0.0306,0.0303,0.0197,0.019,0.0161,0.0154,0.0158,0.0136,0.0135,0.0067,0.0067,0,0,0,0.0346,0.0335,0.0328,0.0287,0.0288,0.0305,0.0301,0.0194,0.0194,0.0152,0.0156,0.0135,0.0133,0.0066,0.0067,0.0218,0,0,0,0.0346,0.035,0.033,0.0334,0.0291,0.0251,0.0301,0.0201,0.019,0.0157,0.0135,0.0132,0.0066,0.0067,0.0214,0.0295,0,0,0,0.0354,0.0351,0.035,0.0335,0.0323,0.0253,0.0245,0.0199,0.0193,0.0137,0.0132,0.0066,0.0067,0.021,0.0287,0.0336,0,0,0,0.0358,0.0393,0.035,0.0386,0.0324,0.0327,0.0246,0.0227,0.0189,0.0134,0.0066,0.0067,0.0208,0.0282,0.0331,0.0451,0.0483,0,0,0.0414,0.04,0.0423,0.0385,0.0426,0.0332,0.0356,0.0268,0.0179,0.0091,0.009,0.0215,0.0286,0.0335,0.048,0.0513,0,0,0,0.0449,0.047,0.0471,0.0481,0.0456,0.0444,0.0354,0.0308,0.0238,0.0162,0.0183,0.0222,0.0249,0.0309,0.0334,0.0223,0.0069,0.0069,0.0069,0.0542,0.0537,0.0586,0.0578,0.057,0.0513,0.0493,0.0407,0.0308,0.0298,0.0322,0.0432,0.0497,0.0517,0.0401,0.0284,0.0285,0.0285,0.0286,0.0652,0.069,0.0678,0.0722,0.0695,0.0692,0.0617,0.0558,0.0522,0.0422,0.044,0.0437,0.0554,0.042,0.0295,0.0293,0.0292,0.0291,0.0291,0.072,0.0743,0.0759,0.0819,0.0855,0.081,0.0879,0.0781,0.0661,0.0691,0.0704,0.0703,0.0604,0.0688,0.0688,0.0689,0.069,0.069,0.069,0.0784,0.0807,0.0877,0.0925,0.0972,0.1037,0.1027,0.1027,0.0966,0.0884,0.0883,0.0635,0.0554,0.0561,0.07,0.0698,0.0697,0.0696,0.0695,0.0902,0.0887,0.1008,0.1068,0.1199,0.1357,0.1328,0.1371,0.1311,0.1307,0.0955,0.0964,0.0923,0.0902,0.0915,0.1138,0.1138,0.1138,0.1138,0.0977,0.0978,0.1154,0.1282,0.1424,0.1522,0.1754,0.1741,0.1435,0.1251,0.1071,0.0994,0.0981,0.0935,0.0913,0.0921,0.1139,0.1139,0.1138,0.1084,0.1122,0.1276,0.1379,0.1534,0.1731,0.1978,0.2056,0.1546,0.1118,0.0896,0.0896,0.0753,0.0741,0.0636,0.0614,0.0614,0,0]}],[{"header":{"parameterUnit":"m.s-1","parameterCategory":2,"la1":30.2992,"la2":30.254,"lo1":-89.0895,"lo2":-89.0443,"dy":0.0025,"dx":0.0025,"nx":19,"ny":19,"refTime":"2026-04-22T21:00:00:Z","depth":"2","parameterNumber":2,"parameterNumberName":"U-component_of_CURRENTS"},"data":[0,0,0,0.2882,0.2885,0.2992,0.2993,0.3108,0.3109,0,0,0,0,0,0,0,0,0,0,0,0.2848,0.2849,0.2882,0.2885,0.2992,0.2993,0.3108,0.3109,0,0,0,0,0,0,0,0,0,0,0,0.2848,0.2849,0.285,0.2885,0.2992,0.2993,0.3108,0.303,0,0,0,0,0,0,0,0,0,0,0.2927,0.2887,0.2849,0.285,0.2886,0.2992,0.2993,0.3026,0.3034,0.3056,0,0.3088,0,0.3105,0.3117,0.3118,0,0,0,0.2875,0.288,0.2927,0.2851,0.2887,0.2992,0.2941,0.3031,0.304,0.3067,0.3089,0.3094,0.3107,0.3118,0.3119,0.3275,0.3275,0,0,0.2869,0.2847,0.292,0.2933,0.2935,0.2938,0.2945,0.3037,0.3044,0.309,0.3097,0.3109,0.3119,0.312,0.3274,0.3275,0,0,0,0.2859,0.2843,0.2888,0.2928,0.2952,0.2941,0.2949,0.3039,0.3061,0.3098,0.311,0.312,0.3121,0.3273,0.3274,0.3286,0,0,0,0.2854,0.2838,0.2885,0.2871,0.2951,0.2997,0.2949,0.3054,0.3065,0.311,0.312,0.3122,0.3272,0.3274,0.3284,0.3236,0,0,0,0.284,0.2836,0.2859,0.287,0.2923,0.2996,0.3021,0.3056,0.3073,0.3118,0.3123,0.3272,0.3273,0.3282,0.3234,0.3275,0,0,0,0.2799,0.2842,0.2858,0.291,0.2922,0.3015,0.302,0.3088,0.3131,0.312,0.3272,0.3274,0.3281,0.3234,0.3274,0.3235,0.3238,0,0,0.283,0.2845,0.2877,0.2895,0.2969,0.2998,0.3079,0.3136,0.3166,0.3236,0.324,0.3285,0.3234,0.3275,0.3345,0.3344,0,0,0,0.2872,0.2891,0.2924,0.2964,0.3031,0.3073,0.3142,0.3194,0.3273,0.3203,0.332,0.3288,0.3313,0.3289,0.3289,0.3283,0.3283,0.3283,0.3283,0.2841,0.2884,0.2916,0.2979,0.3043,0.3137,0.3187,0.3264,0.3314,0.3367,0.3326,0.3395,0.3373,0.3371,0.3388,0.3388,0.3388,0.3388,0.3388,0.2815,0.2807,0.2872,0.2918,0.299,0.3062,0.3218,0.3276,0.3378,0.3396,0.3423,0.3337,0.3372,0.339,0.339,0.3389,0.3389,0.3389,0.3389,0.2722,0.2725,0.2758,0.2801,0.287,0.3002,0.3103,0.3233,0.3348,0.3371,0.3384,0.3383,0.3368,0.3418,0.3418,0.3418,0.3418,0.3418,0.3418,0.2589,0.263,0.2631,0.2692,0.2729,0.2838,0.3045,0.3152,0.3301,0.3363,0.3364,0.3405,0.3404,0.3371,0.3418,0.3418,0.3418,0.3418,0.3418,0.2546,0.2528,0.2534,0.2554,0.2619,0.2654,0.288,0.3095,0.3222,0.3276,0.3378,0.3379,0.3364,0.3364,0.3332,0.3365,0.3365,0.3365,0.3365,0.2505,0.2493,0.2498,0.2501,0.251,0.2587,0.266,0.2835,0.3077,0.3148,0.3157,0.3133,0.3142,0.3112,0.3118,0.308,0.3047,0.3046,0.3046,0.2534,0.2513,0.2529,0.2484,0.247,0.2492,0.2494,0.2512,0.2735,0.3026,0.3032,0.3357,0.3349,0.3351,0.3327,0.3328,0.3275,0,0]},{"header":{"parameterUnit":"m.s-1","parameterCategory":2,"la1":30.2992,"la2":30.254,"lo1":-89.0895,"lo2":-89.0443,"dy":0.0025,"dx":0.0025,"nx":19,"ny":19,"refTime":"2026-04-22T21:00:00:Z","depth":"2","parameterNumber":3,"parameterNumberName":"V-component_of_CURRENTS"},"data":[0,0,0,0.0244,0.0243,0.0192,0.0192,0.0065,0.0064,0,0,0,0,0,0,0,0,0,0,0,0.0255,0.0255,0.0244,0.0243,0.0193,0.0192,0.0065,0.0064,0,0,0,0,0,0,0,0,0,0,0,0.0255,0.0255,0.0255,0.0243,0.0193,0.0192,0.0065,0.0114,0,0,0,0,0,0,0,0,0,0,0.0169,0.0196,0.0255,0.0255,0.0243,0.0193,0.0192,0.0117,0.0111,0.0076,0,0.008,0,0.0079,0.0056,0.0055,0,0,0,0.0222,0.0201,0.0192,0.0255,0.0243,0.0193,0.0209,0.0114,0.0107,0.0068,0.0078,0.0074,0.0077,0.0055,0.0054,0.0006,0.0006,0,0,0.0225,0.0235,0.0197,0.0189,0.0242,0.0211,0.0208,0.011,0.0104,0.0077,0.0071,0.0075,0.0054,0.0053,0.0005,0.0006,0,0,0,0.0247,0.0237,0.0232,0.0193,0.0195,0.021,0.0207,0.0108,0.0108,0.007,0.0073,0.0053,0.0052,0.0005,0.0005,0.0145,0,0,0,0.0248,0.0251,0.0233,0.0237,0.0198,0.016,0.0207,0.0115,0.0104,0.0074,0.0053,0.0051,0.0004,0.0005,0.014,0.0216,0,0,0,0.0255,0.0252,0.0252,0.0238,0.0227,0.0162,0.0156,0.0112,0.0107,0.0055,0.005,0.0004,0.0005,0.0136,0.0207,0.025,0,0,0,0.0258,0.0295,0.0252,0.029,0.0227,0.0238,0.0156,0.0142,0.0108,0.0053,0.0004,0.0005,0.0135,0.0202,0.0246,0.0328,0.0356,0,0,0.0316,0.0302,0.0327,0.0289,0.0334,0.0242,0.0271,0.0187,0.0105,0.0027,0.0026,0.0142,0.0207,0.0249,0.0378,0.0405,0,0,0,0.0354,0.0375,0.0379,0.0391,0.037,0.0358,0.0273,0.023,0.0168,0.0092,0.012,0.0156,0.0179,0.0218,0.0239,0.0009,0.0009,0.0009,0.0009,0.0443,0.0441,0.0493,0.0489,0.0485,0.0432,0.0413,0.0332,0.0241,0.0234,0.0254,0.0362,0.0405,0.0422,0.0225,0.0226,0.0227,0.0227,0.0227,0.0552,0.0586,0.0582,0.063,0.0605,0.0606,0.0536,0.048,0.0446,0.0355,0.0369,0.0343,0.0454,0.0238,0.0236,0.0234,0.0233,0.0233,0.0232,0.0616,0.0633,0.0659,0.0721,0.076,0.0721,0.0783,0.0694,0.0577,0.0603,0.0595,0.0593,0.0454,0.0599,0.0599,0.06,0.06,0.0601,0.0601,0.0659,0.0691,0.0763,0.0821,0.087,0.0935,0.0924,0.0918,0.0846,0.076,0.0759,0.0486,0.0474,0.0474,0.0609,0.0608,0.0607,0.0606,0.0605,0.0738,0.0742,0.0858,0.0925,0.1068,0.1207,0.1194,0.1207,0.1146,0.1125,0.0829,0.082,0.0779,0.076,0.0764,0.0967,0.0967,0.0967,0.0967,0.078,0.0794,0.0953,0.1088,0.1244,0.1341,0.1521,0.1465,0.1257,0.109,0.1084,0.1025,0.1009,0.0973,0.0949,0.0954,0.1207,0.1207,0.1207,0.0839,0.0875,0.1008,0.1141,0.1324,0.1502,0.1674,0.1624,0.13,0.1212,0.1076,0.0993,0.0886,0.0868,0.0789,0.0761,0.0758,0,0]}],[{"header":{"parameterUnit":"m.s-1","parameterCategory":2,"la1":30.2992,"la2":30.254,"lo1":-89.0895,"lo2":-89.0443,"dy":0.0025,"dx":0.0025,"nx":19,"ny":19,"refTime":"2026-04-22T21:00:00:Z","depth":"4","parameterNumber":2,"parameterNumberName":"U-component_of_CURRENTS"},"data":[0,0,0,0.1774,0.1778,0.1981,0.1982,0.2128,0.2129,0,0,0,0,0,0,0,0,0,0,0,0.1704,0.1705,0.1773,0.1779,0.1981,0.1982,0.2128,0.2129,0,0,0,0,0,0,0,0,0,0,0,0.1703,0.1705,0.1707,0.1779,0.1981,0.1982,0.2127,0.2002,0,0,0,0,0,0,0,0,0,0,0.1818,0.1777,0.1705,0.1707,0.178,0.1981,0.1982,0.1997,0.2009,0.2005,0,0.2049,0,0.2093,0.2136,0.2137,0,0,0,0.1775,0.1767,0.1818,0.1707,0.1782,0.198,0.1888,0.2005,0.2019,0.2021,0.2052,0.2058,0.2095,0.2137,0.2138,0.2259,0.2259,0,0,0.1763,0.1741,0.1808,0.1827,0.185,0.1882,0.1895,0.2015,0.2035,0.2052,0.2062,0.2098,0.2138,0.2139,0.2258,0.2259,0,0,0,0.1734,0.1733,0.1784,0.182,0.1867,0.1888,0.1903,0.203,0.2047,0.2064,0.2099,0.2139,0.214,0.2258,0.2258,0.2346,0,0,0,0.1727,0.1717,0.1778,0.1767,0.1865,0.1968,0.1915,0.2038,0.2054,0.2099,0.2139,0.2141,0.2257,0.2258,0.2343,0.237,0,0,0,0.1692,0.1713,0.174,0.1765,0.1855,0.1968,0.1992,0.2043,0.2074,0.2137,0.2141,0.2257,0.2258,0.2339,0.2365,0.2432,0,0,0,0.1655,0.1695,0.174,0.1802,0.1853,0.197,0.1992,0.2095,0.2153,0.2139,0.2257,0.2258,0.2338,0.2361,0.2428,0.2113,0,0,0,0.1674,0.1698,0.1732,0.1776,0.1875,0.194,0.2056,0.2147,0.2162,0.2207,0.2212,0.2344,0.2364,0.2431,0.2182,0,0,0,0,0.1716,0.1741,0.178,0.1857,0.1947,0.2057,0.2145,0.219,0.2284,0.2205,0.2342,0.2352,0.2392,0.2196,0.2264,0.2264,0.2263,0.2263,0.2263,0.1676,0.1741,0.1813,0.191,0.1997,0.2145,0.2237,0.2311,0.2322,0.238,0.2423,0.253,0.2326,0.2426,0.2427,0.2427,0.2428,0.2428,0.2428,0.1684,0.172,0.1837,0.1934,0.2065,0.2181,0.2341,0.2397,0.2527,0.2495,0.253,0.23,0.2437,0.2435,0.2434,0.2433,0.2432,0.2432,0.2431,0.1636,0.1664,0.176,0.191,0.2068,0.2227,0.2367,0.2507,0.2595,0.2662,0.2464,0.2593,0.2587,0.2698,0.2699,0.2699,0.27,0.27,0.27,0.1533,0.1631,0.1715,0.1885,0.1987,0.2159,0.2403,0.2489,0.2629,0.2522,0.2701,0.2621,0.2612,0.2602,0.2707,0.2706,0.2705,0.2704,0.2704,0.1438,0.1511,0.1607,0.1707,0.1916,0.2015,0.2274,0.2377,0.2454,0.2439,0.2442,0.2453,0.2393,0.239,0.237,0.241,0.2407,0.2403,0,0.1351,0.1401,0.1506,0.161,0.1721,0.1912,0.1946,0.209,0.2226,0.2148,0.2462,0.2462,0.2468,0.2395,0.2387,0.2359,0,0,0,0.1274,0.1324,0.1354,0.1498,0.161,0.1746,0.1943,0.1924,0.2197,0.2184,0.2311,0.2335,0.2551,0.2727,0.2662,0.2651,0.2632,0,0]},{"header":{"parameterUnit":"m.s-1","parameterCategory":2,"la1":30.2992,"la2":30.254,"lo1":-89.0895,"lo2":-89.0443,"dy":0.0025,"dx":0.0025,"nx":19,"ny":19,"refTime":"2026-04-22T21:00:00:Z","depth":"4","parameterNumber":3,"parameterNumberName":"V-component_of_CURRENTS"},"data":[0,0,0,0.0197,0.0197,0.0165,0.0165,0.009,0.0089,0,0,0,0,0,0,0,0,0,0,0,0.0206,0.0206,0.0197,0.0197,0.0165,0.0165,0.009,0.0089,0,0,0,0,0,0,0,0,0,0,0,0.0206,0.0206,0.0206,0.0197,0.0165,0.0165,0.009,0.012,0,0,0,0,0,0,0,0,0,0,0.0153,0.0169,0.0206,0.0206,0.0197,0.0165,0.0165,0.0121,0.0118,0.0098,0,0.0102,0,0.0099,0.0085,0.0084,0,0,0,0.0184,0.0172,0.0169,0.0206,0.0197,0.0165,0.0176,0.0119,0.0115,0.0094,0.0101,0.0098,0.0098,0.0084,0.0084,0.009,0.0091,0,0,0.0186,0.0192,0.0172,0.0167,0.0198,0.0177,0.0175,0.0117,0.0113,0.01,0.0097,0.0097,0.0084,0.0083,0.009,0.009,0,0,0,0.02,0.0193,0.0191,0.0169,0.017,0.0176,0.0174,0.0116,0.0117,0.0096,0.0096,0.0083,0.0082,0.0089,0.009,0.0171,0,0,0,0.02,0.0202,0.0192,0.0194,0.0171,0.0147,0.0174,0.0121,0.0114,0.0096,0.0083,0.0082,0.0088,0.0089,0.0168,0.0223,0,0,0,0.0206,0.0202,0.0203,0.0195,0.0187,0.0148,0.0145,0.0119,0.0115,0.0084,0.0082,0.0088,0.0089,0.0165,0.0217,0.0241,0,0,0,0.0206,0.0237,0.0203,0.0238,0.0188,0.021,0.0145,0.0145,0.0127,0.0083,0.0088,0.009,0.0163,0.0213,0.0238,0.025,0,0,0,0.0253,0.0242,0.0266,0.0236,0.0281,0.0213,0.0245,0.0188,0.014,0.0101,0.0101,0.0169,0.0216,0.024,0.0332,0,0,0,0,0.0287,0.0303,0.031,0.0324,0.032,0.0314,0.0257,0.0228,0.0195,0.0137,0.0175,0.0202,0.0214,0.0212,0.0097,0.0096,0.0096,0.0096,0.0096,0.0346,0.0354,0.04,0.0405,0.0411,0.0381,0.0369,0.0319,0.0258,0.0259,0.0272,0.0355,0.0356,0.0264,0.0265,0.0265,0.0265,0.0266,0.0266,0.0424,0.0446,0.0462,0.0509,0.0502,0.0515,0.047,0.0428,0.0408,0.0351,0.0357,0.0303,0.0274,0.0272,0.0271,0.027,0.027,0.0269,0.0269,0.0457,0.0468,0.0506,0.0571,0.0617,0.0602,0.0645,0.059,0.05,0.0513,0.0483,0.0411,0.0399,0.0507,0.0508,0.0508,0.0508,0.0509,0.0509,0.0458,0.0499,0.0563,0.0636,0.0689,0.0751,0.0754,0.0735,0.065,0.0597,0.0542,0.0436,0.0428,0.0413,0.0515,0.0514,0.0513,0.0512,0.0512,0.0445,0.0487,0.0579,0.065,0.0799,0.0858,0.0884,0.0831,0.0811,0.0745,0.0621,0.0614,0.0583,0.0572,0.0559,0.0709,0.071,0.071,0,0.0421,0.0456,0.0572,0.0698,0.0839,0.0912,0.094,0.0913,0.0786,0.0769,0.0766,0.0627,0.0621,0.0585,0.0575,0.0562,0,0,0,0.0383,0.0434,0.05,0.0666,0.0841,0.0907,0.0943,0.0909,0.0825,0.0799,0.0724,0.0721,0.0634,0.0532,0.0468,0.0458,0.043,0,0]}]]